Location: Boiro
(42.6475°N, 8.8834°W)
Time: 00:49:42
(UTC+01:00)

Tiros 1 despin weight - Pass Details

Date: 09 December 2021
Orbit: 592 x 641 km, 48.2° (Epoch: 23 January)

Event Time Altitude Azimuth Distance (km) Brightness Sun altitude
Rises 14:17:13 0° 266° (W) 2,846 ? 23.5°
Reaches altitude 10° 14:19:36 10° 273° (W) 1,937 ? 23.4°
Maximum altitude 14:23:53 47° 347° (NNW) 793 ? 23.2°
Drops below altitude 10° 14:28:09 10° 62° (ENE) 1,925 ? 23.0°
Sets 14:30:30 0° 69° (ENE) 2,825 ? 22.9°
